Regional Weather Roundup
Issued by NWS Glasgow, MT

Home | Current Version | Previous Version | Text Only | Print | Product List | Glossary On
Versions: 1 2 3 4 5 6 7 8 9 10 11 12 13 14 15 16 17 18 19 20 21 22 23 24 25 26 27 28 29 30 31 32 33 34 35 36 37 38 39 40 41 42 43 44 45 46 47 48 49 50
000
ASUS45 KGGW 072315
RWRGGW
HOURLY REGIONAL WEATHER ROUNDUP FOR NORTHEAST MONTANA
NATIONAL WEATHER SERVICE GLASGOW MONTANA
500 PM MDT TUE JUL 07 2015

NOTE: "FAIR" INDICATES FEW OR NO CLOUDS BELOW 12,000 FEET WITH NO
SIGNIFICANT WEATHER AND/OR OBSTRUCTIONS TO VISISBILITY.

NORTHEAST MONTANA


CITY           SKY/WX    TMP DP  RH WIND       PRES   REMARKS
GLASGOW        PTSUNNY   79  43  27 NW9       29.97F
PLENTYWOOD       N/A     74  51  44 SW6         N/A
WOLF POINT     MOSUNNY   78  50  37 SW5       29.97F
JORDAN           N/A     78  46  32 N21       29.99F
WINNETT          N/A     74  38  27 NW12G25     N/A
SIDNEY         SUNNY     81  46  30 CALM      29.96F
GLENDIVE       MOSUNNY   79  50  36 NE12      29.96F
MALTA            N/A     76  48  37 NW7         N/A
SCOBEY           N/A     76  44  32 NW5       29.97S

FORT PECK REPORTS


CITY           SKY/WX    TMP DP  RH WIND       PRES   REMARKS
FORT PECK        N/A     72  56  57 S9G18       N/A
THE PINES        N/A     73  51  46 NE6         N/A

SOUTHEAST MONTANA


CITY           SKY/WX    TMP DP  RH WIND       PRES   REMARKS
BILLINGS       MOSUNNY   82  41  23 NE17G24   30.02S
MILES CITY     SUNNY     83  42  23 NW9G20    29.95F
BAKER          MOSUNNY   79  50  36 NW12G18   29.96F
LIVINGSTON     MOSUNNY   77  43  29 NE15      30.04F

CENTRAL MONTANA


CITY           SKY/WX    TMP DP  RH WIND       PRES   REMARKS
HAVRE          CLOUDY    73  53  49 SW13      30.05F
LEWISTOWN      PTSUNNY   70  46  42 N17       30.12S
GREAT FALLS    PTSUNNY   67  49  52 CALM      30.12F
CUT BANK       MOSUNNY   69  45  41 VRB3      30.13F
HELENA         PTSUNNY   75  48  38 N13       30.08S
BUTTE          MOSUNNY   74  40  29 W8        30.11F
BOZEMAN        TSTM      70  49  47 NW31G38   30.02R

WESTERN MONTANA


CITY           SKY/WX    TMP DP  RH WIND       PRES   REMARKS
MISSOULA       CLOUDY    76  47  35 N13       30.01F
KALISPELL      NOT AVBL

NORTH DAKOTA


CITY           SKY/WX    TMP DP  RH WIND       PRES   REMARKS
WILLISTON      CLOUDY    73  53  49 N16G26    29.97S
DICKINSON      LGT RAIN  68  59  73 SE9       29.95F
MINOT          PTSUNNY   75  52  44 SE13      29.96F
BISMARCK       PTSUNNY   73  57  57 S14       30.02F

SOUTHERN SASKATCHEWAN


CITY           SKY/WX    TMP DP  RH WIND       PRES   REMARKS
REGINA         MOSUNNY   77  52  41 NW16G24   29.94R
MOOSE JAW      MOSUNNY   77  48  36 NW16G22   29.95F
ESTEVAN        PTSUNNY   75  54  46 SW14      29.95F
SWIFT CURRENT  SUNNY     72  48  43 N18G26    30.02R



USA.gov is the U.S. government's official web portal to all federal, state and local government web resources and services.